Terug naar catalogus

COSMOS 528

ActiefMilitairLEO
NORAD 6262·PAYLOAD·🇷🇺 Russia

Gelanceerd Nov 1, 1972 vanaf Plesetsk Cosmodrome

Loading…

Volgende Passages (komende 24 uur)

TLE

VersSource: Space-Track

Epoch: Sep 14, 2026, 13:54 UTC

1 06262U 72087A   26257.57929394 -.00000019  00000-0 -19445-4 0  9999
2 06262  74.0381  19.5817 0064596 111.2954 262.3743 12.61617738481063

Volg COSMOS 528 in realtime met AllMySat

Download on the App Store